Location: Unspecified
(0.0000°N, 0.0000°E)
Time: 14:05:14
(UTC+00:00)

Explorer 11/Cluster Stage 4 - Pass Details

Date: 19 November 2019
Orbit: 467 x 1259 km, 28.8° (Epoch: 08 December)

Event Time Altitude Azimuth Distance (km) Brightness Sun altitude
Rises 05:06:39 0° 282° (WNW) 4,152 - -9.1°
Exits shadow 05:09:31 - 275° (W) 3,264 9.1 -8.4°
Reaches altitude 10° 05:09:59 10° 274° (W) 3,127 9.0 -8.3°
Maximum altitude 05:16:54 34° 212° (SSW) 1,697 8.2 -6.7°
Drops below altitude 10° 05:22:54 10° 148° (SSE) 2,686 10.2 -5.3°
Sets 05:25:34 0° 139° (SE) 3,503 11.1 -4.6°
